Regional Weather Roundup
Issued by NWS Green Bay, WI

Home | Current Version | Previous Version | Graphics & Text | Print | Product List | Glossary Off
Versions: 1 2 3 4 5 6 7 8 9 10 11 12 13 14 15 16 17 18 19 20 21 22 23 24 25 26 27 28 29 30 31 32 33 34 35 36 37 38 39 40 41 42 43 44 45 46 47 48 49 50

000
ASUS43 KGRB 241311
RWRGRB

NORTH-CENTRAL AND NORTHEAST WISCONSIN REGIONAL WEATHER ROUNDUP
NATIONAL WEATHER SERVICE GREEN BAY WI
800 AM CDT TUE MAY 24 2016

WIZ005-009-010>012-018-019-241400-
NORTH CENTRAL WISCONSIN

CITY           SKY/WX    TMP DP  RH WIND       PRES   REMARKS
IRONWOOD       CLOUDY    61  59  94 CALM      29.84F
MANITOWISH WTR CLOUDY    62  62 100 S3        29.89S
ARBOR VITAE    CLOUDY    63  61  94 S5        29.90R
EAGLE RIVER    LGT RAIN  62  62  99 CALM      29.90S
LAND O LAKES   LGT RAIN  61  60  98 SE3       29.90F
RHINELANDER    LGT RAIN  63  61  93 SW5       29.92R
PHILLIPS       CLOUDY    64  62  94 S9        29.88R
ANTIGO         LGT RAIN  61  60  96 CALM      29.93S
TOMAHAWK       CLOUDY    62  61  96 CALM      29.91S FOG
MERRILL        CLOUDY    61  61 100 CALM      29.92S
$$

WIZ013-073-241400-
NORTHEAST WISCONSIN

CITY           SKY/WX    TMP DP  RH WIND       PRES   REMARKS
IRON MOUNTAIN  CLOUDY    67  57  70 CALM      29.89S
MARINETTE      CLOUDY    64  50  59 SW6       29.91S
OCONTO         CLOUDY    64  52  64 CALM      29.91R
$$

WIZ017-030-035>037-045-241400-
CENTRAL WISCONSIN

CITY           SKY/WX    TMP DP  RH WIND       PRES   REMARKS
MEDFORD        CLOUDY    63  61  94 S5        29.90S
WAUSAU         LGT RAIN  61  56  83 CALM      29.90S
MOSINEE        PTSUNNY   57  55  94 CALM      29.92R
MARSHFIELD     CLOUDY    63  55  75 CALM      29.89S
WISC RAPIDS    CLOUDY    64  54  69 S3        29.91S
STEVENS POINT  CLOUDY    60  54  78 CALM      29.91S
WAUPACA        CLOUDY    66  52  61 SE5       29.91F
SHAWANO        CLOUDY    66  51  59 CALM      29.91F
CLINTONVILLE   CLOUDY    64  50  59 SW3       29.91S
WAUTOMA        CLOUDY    63  51  65 CALM      29.92S
$$

WIZ038-039-048-051-241400-
FOX VALLEY

CITY           SKY/WX    TMP DP  RH WIND       PRES   REMARKS
NWS GREEN BAY  SUNNY     68  51  54 S6        29.91S
APPLETON       PTSUNNY   66  48  52 S7        29.91R
OSHKOSH        SUNNY     67  51  56 S9        29.92R
FOND DU LAC    SUNNY     69  51  52 S8        29.93S
$$

WIZ022-050-052-241400-
EAST CENTRAL WISCONSIN

CITY           SKY/WX    TMP DP  RH WIND       PRES   REMARKS
EPHRAIM        FAIR      65  47  51 SW6       29.91R
STURGEON BAY   NOT AVBL
MANITOWOC      PTSUNNY   65  53  65 S3        29.94R
SHEBOYGAN      MOSUNNY   67  49  52 SW8       29.95R
$$

LMZ563-521-522-541>543-241400-
LAKESHORE

STATION/POSITION TIME  TEMP    WIND        PRES    VSBY  WAVE
                       AIR SEA DIR/SP/G                  HT/PER
                 (UTC) (F)     (DEG/KT/KT) (MB)    (MI)  (FT/S)
SHEBOYGAN LKSHOR 1300   62     180/  6/  7 1014.5R
KEWAUNEE LKSHORE 1200   53     170/  2/  3 1012.3R
ALGOMA MARINA    1216          210/  7/  8   N/A
NORTHPORT PIER   1200   68     240/  3/  8 1012.5R
N MID LAKE BUOY  1250   47 44  190/ 12/ 14 1012.8R         2/ 4
SISTER BAY LKSHO 1149   62        CALM       N/A
CHAMBERS ISLAND  1200   63     190/  6/ 10 1012.5R
MENOMINEE LKSHOR 1200   64     220/  8/ 10 1011.7R
$$




USA.gov is the U.S. government's official web portal to all federal, state and local government web resources and services.